Zurück zum Katalog

STARLINK-33946

AktivKommunikationVLEO
NORAD 64034·PAYLOAD·🇺🇸 United States

Gestartet May 16, 2025 von Vandenberg Space Force Base

Loading…

Nächste Überflüge (nächste 24 Stunden)

TLE

AktuellSource: CelesTrak SupGP

Epoche: Sep 15, 2026, 02:28 UTC

1 64034C 25102N   26258.10326389  .00084399  00000+0  29368-2 0  2582
2 64034  70.0011 355.4754 0003368 267.8620 309.5038 15.29526679    13

Verfolge STARLINK-33946 in Echtzeit mit AllMySat

Download on the App Store